#timestamp,LO_Frequency,Hit,StdDev 
1710727215.5,286047002.1,N
1710727235.3,286047002.5,N
1710727255.2,286047003.9,N
1710727275.0,286047001.3,N
1710727275.9,286047001.3,N
1710727295.8,286047002.0,N
1710727315.6,286047004.2,N
1710727335.4,286046999.8,N
1710727355.3,286047001.0,N
1710727375.1,286046999.8,N
1710727395.9,286047000.3,N
1710727415.7,286047000.3,N
1710727435.5,286046999.8,N
1710727455.4,286047002.0,N
1710727475.2,286047002.0,N
1710727495.0,286047002.6,N
1710727495.9,286047002.6,N
1710727515.8,286047003.5,N
1710727535.6,286047003.4,N
1710727555.5,286046998.9,N
1710727575.3,286046997.2,N
1710727595.1,286046998.4,N
1710727615.9,286047001.5,N
1710727635.7,286047005.0,N
1710727655.5,286047002.9,N
1710727675.4,286047006.7,N
1710727695.2,286047004.6,N
1710727715.1,286047004.7,N
1710727716.0,286047004.7,N
1710727735.8,286047000.5,N
1710727755.6,286046999.0,N
1710727775.5,286046999.2,N
1710727795.3,286046998.7,N
1710727815.2,286046997.6,N
1710727835.9,286046998.0,N
1710727855.7,286046996.8,N
1710727875.6,286046996.4,N
1710727895.4,286046994.5,N
1710727915.2,286046991.9,N
1710727935.1,286046992.3,N
1710727936.0,286046992.3,N
1710727955.8,286046994.5,N
1710727975.7,286046995.2,N
1710727995.5,286046999.5,N
1710728015.3,286047000.8,N
1710728035.2,286047000.3,N
1710728055.0,286047002.0,N
1710728055.9,286047002.0,N
1710728075.7,286047002.4,N
1710728095.6,286047002.4,N
1710728115.4,286047002.7,N
1710728135.3,286047002.6,N
1710728155.1,286047003.8,N
1710728156.0,286047003.8,N
1710728175.8,286047004.8,N
1710728195.7,286047005.4,N
1710728215.5,286047007.6,N
1710728235.3,286047005.4,N
1710728255.2,286047002.7,N
1710728275.0,286046996.9,N
1710728275.9,286046996.9,N
1710728295.8,286046998.0,N
1710728315.6,286046995.1,N
1710728335.4,286046993.3,N
1710728355.3,286046994.3,N
1710728375.1,286046993.2,N
1710728395.9,286046988.8,N
1710728415.7,286046988.2,N
1710728435.5,286046983.9,Y
1710728455.4,286046986.7,P
1710728475.2,286046985.8,N
1710728495.0,286046986.1,N
1710728495.9,286046986.1,N
1710728515.8,286046983.8,Y
1710728535.6,286046995.4,P
1710728555.5,286046996.4,N
1710728575.3,286046992.8,N
1710728595.1,286046992.8,N
1710728615.9,286046988.5,Y
1710728635.7,286046995.5,P
1710728655.6,286046997.7,N
1710728675.4,286046998.0,N
1710728695.2,286046997.6,N
1710728715.1,286046998.6,N
1710728716.0,286046998.6,N
1710728735.8,286046999.8,N
1710728755.6,286047000.2,N
1710728775.5,286047000.3,N
1710728795.3,286046998.3,N
1710728815.1,286046999.3,N
1710728835.9,286046999.6,N
1710728855.7,286047002.8,N
1710728875.6,286047001.8,N
1710728895.4,286047000.4,N
1710728915.2,286047002.4,N
1710728935.1,286046999.7,N
1710728936.0,286046999.7,N
1710728955.8,286047002.0,N
1710728975.6,286047005.2,N
1710728995.5,286047004.5,N
1710729015.3,286047004.8,N
1710729035.2,286047004.8,N
1710729055.9,286047006.4,N
1710729075.7,286047003.4,N
1710729095.6,286047007.3,N
1710729115.4,286047001.3,N
1710729135.2,286047002.6,N
1710729155.1,286047000.9,N
1710729156.0,286047000.9,N
1710729175.8,286046999.7,N
1710729195.7,286047001.1,N
1710729215.5,286046998.9,N
1710729235.3,286046997.2,N
1710729255.2,286046995.4,N
1710729275.0,286046993.5,N
1710729275.9,286046993.5,N
1710729295.8,286046994.3,N
1710729315.6,286046993.2,N
1710729335.4,286046991.3,N
1710729355.3,286046992.0,N
1710729375.1,286046994.8,N
1710729376.0,286046994.8,N
1710729395.8,286046992.4,N
1710729415.7,286046992.3,N
1710729435.5,286046994.8,N
1710729455.4,286046997.1,N
1710729475.2,286046998.1,N
1710729495.0,286046998.2,N
1710729495.9,286046998.2,N
1710729515.8,286047003.9,N
1710729535.6,286046999.7,N
1710729555.4,286047004.2,N
1710729575.3,286047002.2,N
1710729595.1,286047003.3,N
1710729615.9,286047003.3,N
1710729635.7,286047003.3,N
1710729655.5,286047004.3,N
1710729675.4,286047004.6,N
1710729695.2,286047005.5,N
1710729715.1,286047008.2,N
1710729716.0,286047008.2,N
1710729735.8,286047009.6,N
1710729755.6,286047012.1,N
1710729775.5,286047010.6,N
1710729795.3,286047011.2,N
1710729815.1,286047013.4,N
1710729835.9,286047015.4,N
1710729855.7,286047014.9,N
1710729875.6,286047017.9,N
1710729895.4,286047017.7,N
1710729915.2,286047018.9,N
1710729935.1,286047020.7,N
1710729936.0,286047020.7,N
1710729955.8,286047019.3,N
1710729975.7,286047021.3,N
1710729995.5,286047020.9,N
1710730015.3,286047019.4,N
1710730035.2,286047019.2,N
1710730055.9,286047016.0,N
1710730075.7,286047016.1,N
1710730095.6,286047016.2,N
1710730115.4,286047014.7,N
1710730135.3,286047014.5,N
1710730155.1,286047012.8,N
1710730156.0,286047012.8,N
1710730175.8,286047011.5,N
1710730195.7,286047011.7,N
1710730215.5,286047011.7,N
1710730235.3,286047011.9,N
1710730255.2,286047011.1,N
1710730275.0,286047011.3,Y
1710730275.9,286047011.3,P
1710730295.8,286047000.8,N
1710730315.6,286047000.5,N
1710730335.4,286047000.5,N
1710730355.3,286046999.9,N
1710730375.1,286046999.9,N
1710730395.8,286047000.1,N
1710730415.7,286047002.0,N
1710730435.5,286047002.6,N
1710730455.4,286047005.1,N
1710730475.2,286047006.1,N
1710730495.0,286047008.6,N
1710730495.9,286047008.6,N
1710730515.8,286047008.5,N
1710730535.6,286047009.9,N
1710730555.4,286047011.5,N
1710730575.3,286047011.1,N
1710730595.1,286047012.3,N
1710730615.9,286047011.2,N
1710730635.7,286047009.8,N
1710730655.5,286047010.0,N
1710730675.4,286047011.9,N
1710730695.2,286047009.3,N
1710730715.0,286047008.5,N
1710730715.9,286047011.9,N
1710730735.8,286047010.1,N
1710730755.6,286047010.6,N
1710730775.4,286047010.1,N
1710730795.3,286047010.6,N
